Year,Month,Day,Hour,Minute,Value (Times are PST for temperature in C)
2007,09,13,00,00,10.20
2007,09,13,00,01,10.20
2007,09,13,00,02,10.20
2007,09,13,00,03,10.20
2007,09,13,00,04,10.10
2007,09,13,00,05,10.10
2007,09,13,00,06,10.10
2007,09,13,00,07,10.10
2007,09,13,00,08,10.10
2007,09,13,00,09,10.10
2007,09,13,00,10,10.10
2007,09,13,00,11,10.10
2007,09,13,00,12,10.10
2007,09,13,00,13,10.00
2007,09,13,00,14,9.90
2007,09,13,00,15,9.90
2007,09,13,00,16,9.90
2007,09,13,00,17,9.90
2007,09,13,00,18,9.90
2007,09,13,00,19,9.90
2007,09,13,00,20,9.90
2007,09,13,00,21,9.90
2007,09,13,00,22,9.90
2007,09,13,00,23,9.90
2007,09,13,00,24,9.90
2007,09,13,00,25,9.90
2007,09,13,00,26,9.90
2007,09,13,00,27,9.90
2007,09,13,00,28,9.90
2007,09,13,00,29,9.80
2007,09,13,00,30,9.80
2007,09,13,00,31,9.80
2007,09,13,00,32,9.80
2007,09,13,00,33,9.80
2007,09,13,00,34,9.80
2007,09,13,00,35,9.80
2007,09,13,00,36,9.80
2007,09,13,00,37,9.80
2007,09,13,00,38,9.80
2007,09,13,00,39,9.80
2007,09,13,00,40,9.70
2007,09,13,00,41,9.70
2007,09,13,00,42,9.70
2007,09,13,00,43,9.70
2007,09,13,00,44,9.70
2007,09,13,00,45,9.70
2007,09,13,00,46,9.70
2007,09,13,00,47,9.70
2007,09,13,00,48,9.70
2007,09,13,00,49,9.70
2007,09,13,00,50,9.70
2007,09,13,00,51,9.70
2007,09,13,00,52,9.70
2007,09,13,00,53,9.70
2007,09,13,00,54,9.60
2007,09,13,00,55,9.60
2007,09,13,00,56,9.60
2007,09,13,00,57,9.60
2007,09,13,00,58,9.60
2007,09,13,00,59,9.50
2007,09,13,01,00,9.50
2007,09,13,01,01,9.50
2007,09,13,01,02,9.50
2007,09,13,01,03,9.50
2007,09,13,01,04,9.40
2007,09,13,01,05,9.40
2007,09,13,01,06,9.40
2007,09,13,01,07,9.40
2007,09,13,01,08,9.40
2007,09,13,01,09,9.40
2007,09,13,01,10,9.40
2007,09,13,01,11,9.40
2007,09,13,01,12,9.40
2007,09,13,01,13,9.40
2007,09,13,01,14,9.30
2007,09,13,01,15,9.30
2007,09,13,01,16,9.30
2007,09,13,01,17,9.30
2007,09,13,01,18,9.30
2007,09,13,01,19,9.30
2007,09,13,01,20,9.20
2007,09,13,01,21,9.20
2007,09,13,01,22,9.20
2007,09,13,01,23,9.20
2007,09,13,01,24,9.20
2007,09,13,01,25,9.20
2007,09,13,01,26,9.20
2007,09,13,01,27,9.20
2007,09,13,01,28,9.20
2007,09,13,01,29,9.20
2007,09,13,01,30,9.20
2007,09,13,01,31,9.20
2007,09,13,01,32,9.20
2007,09,13,01,33,9.20
2007,09,13,01,34,9.20
2007,09,13,01,35,9.20
2007,09,13,01,36,9.20
2007,09,13,01,37,9.20
2007,09,13,01,38,9.20
2007,09,13,01,39,9.20
2007,09,13,01,40,9.20
2007,09,13,01,41,9.20
2007,09,13,01,42,9.10
2007,09,13,01,43,9.10
2007,09,13,01,44,9.10
2007,09,13,01,45,9.10
2007,09,13,01,46,9.20
2007,09,13,01,47,9.20
2007,09,13,01,48,9.20
2007,09,13,01,49,9.20
2007,09,13,01,50,9.20
2007,09,13,01,51,9.20
2007,09,13,01,52,9.20
2007,09,13,01,53,9.20
2007,09,13,01,54,9.20
2007,09,13,01,55,9.20
2007,09,13,01,56,9.20
2007,09,13,01,57,9.20
2007,09,13,01,58,9.20
2007,09,13,01,59,9.20
2007,09,13,02,00,9.20
2007,09,13,02,01,9.20
2007,09,13,02,02,9.20
2007,09,13,02,03,9.10
2007,09,13,02,04,9.20
2007,09,13,02,05,9.20
2007,09,13,02,06,9.20
2007,09,13,02,07,9.20
2007,09,13,02,08,9.20
2007,09,13,02,09,9.20
2007,09,13,02,10,9.20
2007,09,13,02,11,9.20
2007,09,13,02,12,9.20
2007,09,13,02,13,9.20
2007,09,13,02,14,9.20
2007,09,13,02,15,9.20
2007,09,13,02,16,9.20
2007,09,13,02,17,9.20
2007,09,13,02,18,9.20
2007,09,13,02,19,9.20
2007,09,13,02,20,9.20
2007,09,13,02,21,9.20
2007,09,13,02,22,9.20
2007,09,13,02,23,9.20
2007,09,13,02,24,9.20
2007,09,13,02,25,9.20
2007,09,13,02,26,9.20
2007,09,13,02,27,9.20
2007,09,13,02,28,9.20
2007,09,13,02,29,9.30
2007,09,13,02,30,9.30
2007,09,13,02,31,9.30
2007,09,13,02,32,9.30
2007,09,13,02,33,9.30
2007,09,13,02,34,9.30
2007,09,13,02,35,9.40
2007,09,13,02,36,9.30
2007,09,13,02,37,9.30
2007,09,13,02,38,9.30
2007,09,13,02,39,9.30
2007,09,13,02,40,9.30
2007,09,13,02,41,9.30
2007,09,13,02,42,9.30
2007,09,13,02,43,9.40
2007,09,13,02,44,9.40
2007,09,13,02,45,9.40
2007,09,13,02,46,9.40
2007,09,13,02,47,9.50
2007,09,13,02,48,9.50
2007,09,13,02,49,9.50
2007,09,13,02,50,9.50
2007,09,13,02,51,9.60
2007,09,13,02,52,9.60
2007,09,13,02,53,9.60
2007,09,13,02,54,9.60
2007,09,13,02,55,9.60
2007,09,13,02,56,9.60
2007,09,13,02,57,9.60
2007,09,13,02,58,9.60
2007,09,13,02,59,9.60
2007,09,13,03,00,9.60
2007,09,13,03,01,9.70
2007,09,13,03,02,9.70
2007,09,13,03,03,9.70
2007,09,13,03,04,9.70
2007,09,13,03,05,9.70
2007,09,13,03,06,9.70
2007,09,13,03,07,9.70
2007,09,13,03,08,9.70
2007,09,13,03,09,9.70
2007,09,13,03,10,9.70
2007,09,13,03,11,9.70
2007,09,13,03,12,9.70
2007,09,13,03,13,9.60
2007,09,13,03,14,9.60
2007,09,13,03,15,9.60
2007,09,13,03,16,9.60
2007,09,13,03,17,9.60
2007,09,13,03,18,9.60
2007,09,13,03,19,9.60
2007,09,13,03,20,9.60
2007,09,13,03,21,9.60
2007,09,13,03,22,9.60
2007,09,13,03,23,9.60
2007,09,13,03,24,9.60
2007,09,13,03,25,9.60
2007,09,13,03,26,9.60
2007,09,13,03,27,9.60
2007,09,13,03,28,9.60
2007,09,13,03,29,9.60
2007,09,13,03,30,9.60
2007,09,13,03,31,9.60
2007,09,13,03,32,9.60
2007,09,13,03,33,9.60
2007,09,13,03,34,9.60
2007,09,13,03,35,9.50
2007,09,13,03,36,9.50
2007,09,13,03,37,9.50
2007,09,13,03,38,9.50
2007,09,13,03,39,9.50
2007,09,13,03,40,9.50
2007,09,13,03,41,9.50
2007,09,13,03,42,9.50
2007,09,13,03,43,9.50
2007,09,13,03,44,9.50
2007,09,13,03,45,9.50
2007,09,13,03,46,9.50
2007,09,13,03,47,9.50
2007,09,13,03,48,9.50
2007,09,13,03,49,9.40
2007,09,13,03,50,9.40
2007,09,13,03,51,9.40
2007,09,13,03,52,9.40
2007,09,13,03,53,9.40
2007,09,13,03,54,9.40
2007,09,13,03,55,9.40
2007,09,13,03,56,9.40
2007,09,13,03,57,9.30
2007,09,13,03,58,9.30
2007,09,13,03,59,9.30
2007,09,13,04,00,9.30
2007,09,13,04,01,9.30
2007,09,13,04,02,9.30
2007,09,13,04,03,9.30
2007,09,13,04,04,9.30
2007,09,13,04,05,9.30
2007,09,13,04,06,9.30
2007,09,13,04,07,9.20
2007,09,13,04,08,9.20
2007,09,13,04,09,9.20
2007,09,13,04,10,9.20
2007,09,13,04,11,9.20
2007,09,13,04,12,9.20
2007,09,13,04,13,9.20
2007,09,13,04,14,9.20
2007,09,13,04,15,9.20
2007,09,13,04,16,9.10
2007,09,13,04,17,9.10
2007,09,13,04,18,9.10
2007,09,13,04,19,9.10
2007,09,13,04,20,9.00
2007,09,13,04,21,9.00
2007,09,13,04,22,9.00
2007,09,13,04,23,9.00
2007,09,13,04,24,9.00
2007,09,13,04,25,8.90
2007,09,13,04,26,8.90
2007,09,13,04,27,8.90
2007,09,13,04,28,8.90
2007,09,13,04,29,8.90
2007,09,13,04,30,8.80
2007,09,13,04,31,8.80
2007,09,13,04,32,8.80
2007,09,13,04,33,8.80
2007,09,13,04,34,8.70
2007,09,13,04,35,8.70
2007,09,13,04,36,8.70
2007,09,13,04,37,8.70
2007,09,13,04,38,8.70
2007,09,13,04,39,8.70
2007,09,13,04,40,8.70
2007,09,13,04,41,8.70
2007,09,13,04,42,8.70
2007,09,13,04,43,8.70
2007,09,13,04,44,8.70
2007,09,13,04,45,8.70
2007,09,13,04,46,8.70
2007,09,13,04,47,8.60
2007,09,13,04,48,8.60
2007,09,13,04,49,8.60
2007,09,13,04,50,8.60
2007,09,13,04,51,8.60
2007,09,13,04,52,8.60
2007,09,13,04,53,8.60
2007,09,13,04,54,8.60
2007,09,13,04,55,8.60
2007,09,13,04,56,8.60
2007,09,13,04,57,8.60
2007,09,13,04,58,8.60
2007,09,13,04,59,8.60
2007,09,13,05,00,8.60
2007,09,13,05,01,8.60
2007,09,13,05,02,8.50
2007,09,13,05,03,8.50
2007,09,13,05,04,8.50
2007,09,13,05,05,8.50
2007,09,13,05,06,8.50
2007,09,13,05,07,8.50
2007,09,13,05,08,8.50
2007,09,13,05,09,8.50
2007,09,13,05,10,8.40
2007,09,13,05,11,8.40
2007,09,13,05,12,8.40
2007,09,13,05,13,8.40
2007,09,13,05,14,8.40
2007,09,13,05,15,8.40
2007,09,13,05,16,8.30
2007,09,13,05,17,8.30
2007,09,13,05,18,8.30
2007,09,13,05,19,8.30
2007,09,13,05,20,8.30
2007,09,13,05,21,8.20
2007,09,13,05,22,8.20
2007,09,13,05,23,8.20
2007,09,13,05,24,8.20
2007,09,13,05,25,8.20
2007,09,13,05,26,8.20
2007,09,13,05,27,8.20
2007,09,13,05,28,8.20
2007,09,13,05,29,8.20
2007,09,13,05,30,8.20
2007,09,13,05,31,8.20
2007,09,13,05,32,8.20
2007,09,13,05,33,8.20
2007,09,13,05,34,8.20
2007,09,13,05,35,8.20
2007,09,13,05,36,8.20
2007,09,13,05,37,8.20
2007,09,13,05,38,8.20
2007,09,13,05,39,8.20
2007,09,13,05,40,8.20
2007,09,13,05,41,8.20
2007,09,13,05,42,8.20
2007,09,13,05,43,8.20
2007,09,13,05,44,8.20
2007,09,13,05,45,8.10
2007,09,13,05,46,8.10
2007,09,13,05,47,8.10
2007,09,13,05,48,8.10
2007,09,13,05,49,8.10
2007,09,13,05,50,8.10
2007,09,13,05,51,8.10
2007,09,13,05,52,8.10
2007,09,13,05,53,8.10
2007,09,13,05,54,8.10
2007,09,13,05,55,8.10
2007,09,13,05,56,8.00
2007,09,13,05,57,8.00
2007,09,13,05,58,8.00
2007,09,13,05,59,8.00
2007,09,13,06,00,8.00
2007,09,13,06,01,8.00
2007,09,13,06,02,8.00
2007,09,13,06,03,7.90
2007,09,13,06,04,7.90
2007,09,13,06,05,7.90
2007,09,13,06,06,7.90
2007,09,13,06,07,8.00
2007,09,13,06,08,8.00
2007,09,13,06,09,8.00
2007,09,13,06,10,8.00
2007,09,13,06,11,8.00
2007,09,13,06,12,8.00
2007,09,13,06,13,8.00
2007,09,13,06,14,8.00
2007,09,13,06,15,8.00
2007,09,13,06,16,8.00
2007,09,13,06,17,8.00
2007,09,13,06,18,8.00
2007,09,13,06,19,8.00
2007,09,13,06,20,8.00
2007,09,13,06,21,8.00
2007,09,13,06,22,8.00
2007,09,13,06,23,8.00
2007,09,13,06,24,8.00
2007,09,13,06,25,8.00
2007,09,13,06,26,8.00
2007,09,13,06,27,7.90
2007,09,13,06,28,7.90
2007,09,13,06,29,7.90
2007,09,13,06,30,7.90
2007,09,13,06,31,7.90
2007,09,13,06,32,7.90
2007,09,13,06,33,7.80
2007,09,13,06,34,7.80
2007,09,13,06,35,7.80
2007,09,13,06,36,7.80
2007,09,13,06,37,7.80
2007,09,13,06,38,7.80
2007,09,13,06,39,7.80
2007,09,13,06,40,7.80
2007,09,13,06,41,7.80
2007,09,13,06,42,7.80
2007,09,13,06,43,7.80
2007,09,13,06,44,7.80
2007,09,13,06,45,7.80
2007,09,13,06,46,7.80
2007,09,13,06,47,7.80
2007,09,13,06,48,7.80
2007,09,13,06,49,7.80
2007,09,13,06,50,7.80
2007,09,13,06,51,7.80
2007,09,13,06,52,7.80
2007,09,13,06,53,7.80
2007,09,13,06,54,7.80
2007,09,13,06,55,7.80
2007,09,13,06,56,7.80
2007,09,13,06,57,7.80
2007,09,13,06,58,7.80
2007,09,13,06,59,7.80
2007,09,13,07,00,7.80
2007,09,13,07,01,7.80
2007,09,13,07,02,7.80
2007,09,13,07,03,7.80
2007,09,13,07,04,7.80
2007,09,13,07,05,7.80
2007,09,13,07,06,7.80
2007,09,13,07,07,7.80
2007,09,13,07,08,7.80
2007,09,13,07,09,7.80
2007,09,13,07,10,7.80
2007,09,13,07,11,7.80
2007,09,13,07,12,7.80
2007,09,13,07,13,7.80
2007,09,13,07,14,7.80
2007,09,13,07,15,7.80
2007,09,13,07,16,7.80
2007,09,13,07,17,7.80
2007,09,13,07,18,7.80
2007,09,13,07,19,7.80
2007,09,13,07,20,7.80
2007,09,13,07,21,7.80
2007,09,13,07,22,7.80
2007,09,13,07,23,7.80
2007,09,13,07,24,7.80
2007,09,13,07,25,7.80
2007,09,13,07,26,7.80
2007,09,13,07,27,7.80
2007,09,13,07,28,7.90
2007,09,13,07,29,7.90
2007,09,13,07,30,7.90
2007,09,13,07,31,8.00
2007,09,13,07,32,8.00
2007,09,13,07,33,8.00
2007,09,13,07,34,8.00
2007,09,13,07,35,8.10
2007,09,13,07,36,8.10
2007,09,13,07,37,8.10
2007,09,13,07,38,8.10
2007,09,13,07,39,8.10
2007,09,13,07,40,8.10
2007,09,13,07,41,8.10
2007,09,13,07,42,8.10
2007,09,13,07,43,8.20
2007,09,13,07,44,8.20
2007,09,13,07,45,8.20
2007,09,13,07,46,8.20
2007,09,13,07,47,8.20
2007,09,13,07,48,8.30
2007,09,13,07,49,8.30
2007,09,13,07,50,8.30
2007,09,13,07,51,8.30
2007,09,13,07,52,8.30
2007,09,13,07,53,8.30
2007,09,13,07,54,8.40
2007,09,13,07,55,8.40
2007,09,13,07,56,8.40
2007,09,13,07,57,8.40
2007,09,13,07,58,8.40
2007,09,13,07,59,8.50
2007,09,13,08,00,8.50
2007,09,13,08,01,8.50
2007,09,13,08,02,8.60
2007,09,13,08,03,8.70
2007,09,13,08,04,8.70
2007,09,13,08,05,8.70
2007,09,13,08,06,8.80
2007,09,13,08,07,8.90
2007,09,13,08,08,8.90
2007,09,13,08,09,9.00
2007,09,13,08,10,9.10
2007,09,13,08,11,9.20
2007,09,13,08,12,9.20
2007,09,13,08,13,9.20
2007,09,13,08,14,9.30
2007,09,13,08,15,9.40
2007,09,13,08,16,9.40
2007,09,13,08,17,9.40
2007,09,13,08,18,9.50
2007,09,13,08,19,9.50
2007,09,13,08,20,9.60
2007,09,13,08,21,9.60
2007,09,13,08,22,9.70
2007,09,13,08,23,9.70
2007,09,13,08,24,9.80
2007,09,13,08,25,9.80
2007,09,13,08,26,9.90
2007,09,13,08,27,9.90
2007,09,13,08,28,10.00
2007,09,13,08,29,10.10
2007,09,13,08,30,10.20
2007,09,13,08,31,10.20
2007,09,13,08,32,10.30
2007,09,13,08,33,10.40
2007,09,13,08,34,10.50
2007,09,13,08,35,10.60
2007,09,13,08,36,10.70
2007,09,13,08,37,10.80
2007,09,13,08,38,10.90
2007,09,13,08,39,10.90
2007,09,13,08,40,11.00
2007,09,13,08,41,11.10
2007,09,13,08,42,11.20
2007,09,13,08,43,11.30
2007,09,13,08,44,11.30
2007,09,13,08,45,11.40
2007,09,13,08,46,11.40
2007,09,13,08,47,11.50
2007,09,13,08,48,11.60
2007,09,13,08,49,11.70
2007,09,13,08,50,11.80
2007,09,13,08,51,11.80
2007,09,13,08,52,11.80
2007,09,13,08,53,11.90
2007,09,13,08,54,12.00
2007,09,13,08,55,12.00
2007,09,13,08,56,12.10
2007,09,13,08,57,12.10
2007,09,13,08,58,12.20
2007,09,13,08,59,12.20
2007,09,13,09,00,12.20
2007,09,13,09,01,12.30
2007,09,13,09,02,12.30
2007,09,13,09,03,12.40
2007,09,13,09,04,12.50
2007,09,13,09,05,12.50
2007,09,13,09,06,12.60
2007,09,13,09,07,12.60
2007,09,13,09,08,12.70
2007,09,13,09,09,12.70
2007,09,13,09,10,12.80
2007,09,13,09,11,12.90
2007,09,13,09,12,13.10
2007,09,13,09,13,13.20
2007,09,13,09,14,13.30
2007,09,13,09,15,13.40
2007,09,13,09,16,13.40
2007,09,13,09,17,13.40
2007,09,13,09,18,13.40
2007,09,13,09,19,13.50
2007,09,13,09,20,13.50
2007,09,13,09,21,13.50
2007,09,13,09,22,13.70
2007,09,13,09,23,13.80
2007,09,13,09,24,13.90
2007,09,13,09,25,14.00
2007,09,13,09,26,14.10
2007,09,13,09,27,14.10
2007,09,13,09,28,14.10
2007,09,13,09,29,14.20
2007,09,13,09,30,14.20
2007,09,13,09,31,14.10
2007,09,13,09,32,14.10
2007,09,13,09,33,14.10
2007,09,13,09,34,14.10
2007,09,13,09,35,14.10
2007,09,13,09,36,14.20
2007,09,13,09,37,14.20
2007,09,13,09,38,14.30
2007,09,13,09,39,14.40
2007,09,13,09,40,14.60
2007,09,13,09,41,14.60
2007,09,13,09,42,14.70
2007,09,13,09,43,14.80
2007,09,13,09,44,14.80
2007,09,13,09,45,14.80
2007,09,13,09,46,14.90
2007,09,13,09,47,15.00
2007,09,13,09,48,15.00
2007,09,13,09,49,15.10
2007,09,13,09,50,15.20
2007,09,13,09,51,15.20
2007,09,13,09,52,15.30
2007,09,13,09,53,15.40
2007,09,13,09,54,15.50
2007,09,13,09,55,15.50
2007,09,13,09,56,15.60
2007,09,13,09,57,15.60
2007,09,13,09,58,15.60
2007,09,13,09,59,15.60
2007,09,13,10,00,15.40
2007,09,13,10,01,15.40
2007,09,13,10,02,15.30
2007,09,13,10,03,15.20
2007,09,13,10,04,15.20
2007,09,13,10,05,15.20
2007,09,13,10,06,15.10
2007,09,13,10,07,15.10
2007,09,13,10,08,15.10
2007,09,13,10,09,15.10
2007,09,13,10,10,15.10
2007,09,13,10,11,15.10
2007,09,13,10,12,15.20
2007,09,13,10,13,15.30
2007,09,13,10,14,15.40
2007,09,13,10,15,15.50
2007,09,13,10,16,15.80
2007,09,13,10,17,15.80
2007,09,13,10,18,15.90
2007,09,13,10,19,16.00
2007,09,13,10,20,16.10
2007,09,13,10,21,16.20
2007,09,13,10,22,16.20
2007,09,13,10,23,16.30
2007,09,13,10,24,16.30
2007,09,13,10,25,16.40
2007,09,13,10,26,16.50
2007,09,13,10,27,16.60
2007,09,13,10,28,16.70
2007,09,13,10,29,16.70
2007,09,13,10,30,16.80
2007,09,13,10,31,16.90
2007,09,13,10,32,17.00
2007,09,13,10,33,17.00
2007,09,13,10,34,17.10
2007,09,13,10,35,17.10
2007,09,13,10,36,17.10
2007,09,13,10,37,17.10
2007,09,13,10,38,17.20
2007,09,13,10,39,17.30
2007,09,13,10,40,17.40
2007,09,13,10,41,17.50
2007,09,13,10,42,17.60
2007,09,13,10,43,17.60
2007,09,13,10,44,17.60
2007,09,13,10,45,17.60
2007,09,13,10,46,17.50
2007,09,13,10,47,17.50
2007,09,13,10,48,17.40
2007,09,13,10,49,17.40
2007,09,13,10,50,17.40
2007,09,13,10,51,17.40
2007,09,13,10,52,17.40
2007,09,13,10,53,17.40
2007,09,13,10,54,17.40
2007,09,13,10,55,17.30
2007,09,13,10,56,17.40
2007,09,13,10,57,17.50
2007,09,13,10,58,17.50
2007,09,13,10,59,17.60
2007,09,13,11,00,17.60
2007,09,13,11,01,17.70
2007,09,13,11,02,17.70
2007,09,13,11,03,17.80
2007,09,13,11,04,17.90
2007,09,13,11,05,17.90
2007,09,13,11,06,18.00
2007,09,13,11,07,18.20
2007,09,13,11,08,18.20
2007,09,13,11,09,18.40
2007,09,13,11,10,18.40
2007,09,13,11,11,18.50
2007,09,13,11,12,18.50
2007,09,13,11,13,18.60
2007,09,13,11,14,18.70
2007,09,13,11,15,18.70
2007,09,13,11,16,18.70
2007,09,13,11,17,18.60
2007,09,13,11,18,18.60
2007,09,13,11,19,18.50
2007,09,13,11,20,18.40
2007,09,13,11,21,18.40
2007,09,13,11,22,18.30
2007,09,13,11,23,18.30
2007,09,13,11,24,18.30
2007,09,13,11,25,18.40
2007,09,13,11,26,18.50
2007,09,13,11,27,18.50
2007,09,13,11,28,18.60
2007,09,13,11,29,18.60
2007,09,13,11,30,18.60
2007,09,13,11,31,18.60
2007,09,13,11,32,18.50
2007,09,13,11,33,18.50
2007,09,13,11,34,18.50
2007,09,13,11,35,18.50
2007,09,13,11,36,18.50
2007,09,13,11,37,18.50
2007,09,13,11,38,18.60
2007,09,13,11,39,18.60
2007,09,13,11,40,18.70
2007,09,13,11,41,18.70
2007,09,13,11,42,18.70
2007,09,13,11,43,18.80
2007,09,13,11,44,18.80
2007,09,13,11,45,18.70
2007,09,13,11,46,18.60
2007,09,13,11,47,18.60
2007,09,13,11,48,18.60
2007,09,13,11,49,18.50
2007,09,13,11,50,18.50
2007,09,13,11,51,18.60
2007,09,13,11,52,18.70
2007,09,13,11,53,18.80
2007,09,13,11,54,18.90
2007,09,13,11,55,18.90
2007,09,13,11,56,18.90
2007,09,13,11,57,18.90
2007,09,13,11,58,18.90
2007,09,13,11,59,18.90
2007,09,13,12,00,19.00
2007,09,13,12,01,19.10
2007,09,13,12,02,19.10
2007,09,13,12,03,19.00
2007,09,13,12,04,18.90
2007,09,13,12,05,18.90
2007,09,13,12,06,18.90
2007,09,13,12,07,18.90
2007,09,13,12,08,18.90
2007,09,13,12,09,18.80
2007,09,13,12,10,18.70
2007,09,13,12,11,18.80
2007,09,13,12,12,18.90
2007,09,13,12,13,18.90
2007,09,13,12,14,19.00
2007,09,13,12,15,19.10
2007,09,13,12,16,19.10
2007,09,13,12,17,19.10
2007,09,13,12,18,19.10
2007,09,13,12,19,19.20
2007,09,13,12,20,19.30
2007,09,13,12,21,19.30
2007,09,13,12,22,19.30
2007,09,13,12,23,19.30
2007,09,13,12,24,19.30
2007,09,13,12,25,19.20
2007,09,13,12,26,19.10
2007,09,13,12,27,19.10
2007,09,13,12,28,19.10
2007,09,13,12,29,19.10
2007,09,13,12,30,19.10
2007,09,13,12,31,19.10
2007,09,13,12,32,19.10
2007,09,13,12,33,19.10
2007,09,13,12,34,19.10
2007,09,13,12,35,19.10
2007,09,13,12,36,19.10
2007,09,13,12,37,19.10
2007,09,13,12,38,19.10
2007,09,13,12,39,19.10
2007,09,13,12,40,19.10
2007,09,13,12,41,19.20
2007,09,13,12,42,19.20
2007,09,13,12,43,19.40
2007,09,13,12,44,19.50
2007,09,13,12,45,19.50
2007,09,13,12,46,19.50
2007,09,13,12,47,19.50
2007,09,13,12,48,19.50
2007,09,13,12,49,19.60
2007,09,13,12,50,19.70
2007,09,13,12,51,19.70
2007,09,13,12,52,19.80
2007,09,13,12,53,19.70
2007,09,13,12,54,19.70
2007,09,13,12,55,19.70
2007,09,13,12,56,19.80
2007,09,13,12,57,19.80
2007,09,13,12,58,19.90
2007,09,13,12,59,19.70
2007,09,13,13,00,19.70
2007,09,13,13,01,19.70
2007,09,13,13,02,19.80
2007,09,13,13,03,19.80
2007,09,13,13,04,19.80
2007,09,13,13,05,19.70
2007,09,13,13,06,19.50
2007,09,13,13,07,19.40
2007,09,13,13,08,19.40
2007,09,13,13,09,19.20
2007,09,13,13,10,19.30
2007,09,13,13,11,19.30
2007,09,13,13,12,19.30
2007,09,13,13,13,19.40
2007,09,13,13,14,19.40
2007,09,13,13,15,19.50
2007,09,13,13,16,19.50
2007,09,13,13,17,19.50
2007,09,13,13,18,19.60
2007,09,13,13,19,19.60
2007,09,13,13,20,19.70
2007,09,13,13,21,19.70
2007,09,13,13,22,19.70
2007,09,13,13,23,19.80
2007,09,13,13,24,19.80
2007,09,13,13,25,19.80
2007,09,13,13,26,19.90
2007,09,13,13,27,20.00
2007,09,13,13,28,20.20
2007,09,13,13,29,20.20
2007,09,13,13,30,20.30
2007,09,13,13,31,20.40
2007,09,13,13,32,20.50
2007,09,13,13,33,20.40
2007,09,13,13,34,20.20
2007,09,13,13,35,20.20
2007,09,13,13,36,20.10
2007,09,13,13,37,20.10
2007,09,13,13,38,20.10
2007,09,13,13,39,20.20
2007,09,13,13,40,20.20
2007,09,13,13,41,20.00
2007,09,13,13,42,19.90
2007,09,13,13,43,20.00
2007,09,13,13,44,20.10
2007,09,13,13,45,20.10
2007,09,13,13,46,20.00
2007,09,13,13,47,19.90
2007,09,13,13,48,19.80
2007,09,13,13,49,19.80
2007,09,13,13,50,19.70
2007,09,13,13,51,19.80
2007,09,13,13,52,19.90
2007,09,13,13,53,20.00
2007,09,13,13,54,20.10
2007,09,13,13,55,20.10
2007,09,13,13,56,20.10
2007,09,13,13,57,20.10
2007,09,13,13,58,20.20
2007,09,13,13,59,20.10
2007,09,13,14,00,20.10
2007,09,13,14,01,20.10
2007,09,13,14,02,20.10
2007,09,13,14,03,20.10
2007,09,13,14,04,20.10
2007,09,13,14,05,20.20
2007,09,13,14,06,20.20
2007,09,13,14,07,20.30
2007,09,13,14,08,20.40
2007,09,13,14,09,20.50
2007,09,13,14,10,20.50
2007,09,13,14,11,20.60
2007,09,13,14,12,20.70
2007,09,13,14,13,20.70
2007,09,13,14,14,20.70
2007,09,13,14,15,20.80
2007,09,13,14,16,20.80
2007,09,13,14,17,20.70
2007,09,13,14,18,20.70
2007,09,13,14,19,20.70
2007,09,13,14,20,20.70
2007,09,13,14,21,20.70
2007,09,13,14,22,20.80
2007,09,13,14,23,20.80
2007,09,13,14,24,20.80
2007,09,13,14,25,20.80
2007,09,13,14,26,20.80
2007,09,13,14,27,20.80
2007,09,13,14,28,20.80
2007,09,13,14,29,20.90
2007,09,13,14,30,20.90
2007,09,13,14,31,21.00
2007,09,13,14,32,21.00
2007,09,13,14,33,21.00
2007,09,13,14,34,21.10
2007,09,13,14,35,21.10
2007,09,13,14,36,21.10
2007,09,13,14,37,21.20
2007,09,13,14,38,21.20
2007,09,13,14,39,21.20
2007,09,13,14,40,21.10
2007,09,13,14,41,21.00
2007,09,13,14,42,21.00
2007,09,13,14,43,21.10
2007,09,13,14,44,21.20
2007,09,13,14,45,21.30
2007,09,13,14,46,21.30
2007,09,13,14,47,21.50
2007,09,13,14,48,21.60
2007,09,13,14,49,21.70
2007,09,13,14,50,21.90
2007,09,13,14,51,21.90
2007,09,13,14,52,22.00
2007,09,13,14,53,22.00
2007,09,13,14,54,22.10
2007,09,13,14,55,22.10
2007,09,13,14,56,22.10
2007,09,13,14,57,22.20
2007,09,13,14,58,22.20
2007,09,13,14,59,22.20
2007,09,13,15,00,22.30
2007,09,13,15,01,22.30
2007,09,13,15,02,22.30
2007,09,13,15,03,22.20
2007,09,13,15,04,22.30
2007,09,13,15,05,22.30
2007,09,13,15,06,22.40
2007,09,13,15,07,22.40
2007,09,13,15,08,22.50
2007,09,13,15,09,22.50
2007,09,13,15,10,22.40
2007,09,13,15,11,22.30
2007,09,13,15,12,22.30
2007,09,13,15,13,22.20
2007,09,13,15,14,22.10
2007,09,13,15,15,22.20
2007,09,13,15,16,22.20
2007,09,13,15,17,22.30
2007,09,13,15,18,22.30
2007,09,13,15,19,22.40
2007,09,13,15,20,22.30
2007,09,13,15,21,22.40
2007,09,13,15,22,22.40
2007,09,13,15,23,22.40
2007,09,13,15,24,22.40
2007,09,13,15,25,22.40
2007,09,13,15,26,22.50
2007,09,13,15,27,22.50
2007,09,13,15,28,22.60
2007,09,13,15,29,22.70
2007,09,13,15,30,22.80
2007,09,13,15,31,22.90
2007,09,13,15,32,22.90
2007,09,13,15,33,22.80
2007,09,13,15,34,22.70
2007,09,13,15,35,22.70
2007,09,13,15,36,22.70
2007,09,13,15,37,22.60
2007,09,13,15,38,22.50
2007,09,13,15,39,22.40
2007,09,13,15,40,22.30
2007,09,13,15,41,22.20
2007,09,13,15,42,22.30
2007,09,13,15,43,22.40
2007,09,13,15,44,22.50
2007,09,13,15,45,22.50
2007,09,13,15,46,22.50
2007,09,13,15,47,22.50
2007,09,13,15,48,22.40
2007,09,13,15,49,22.50
2007,09,13,15,50,22.40
2007,09,13,15,51,22.40
2007,09,13,15,52,22.40
2007,09,13,15,53,22.40
2007,09,13,15,54,22.40
2007,09,13,15,55,22.40
2007,09,13,15,56,22.20
2007,09,13,15,57,22.10
2007,09,13,15,58,22.00
2007,09,13,15,59,22.00
2007,09,13,16,00,22.00
2007,09,13,16,01,22.10
2007,09,13,16,02,22.10
2007,09,13,16,03,22.20
2007,09,13,16,04,22.20
2007,09,13,16,05,22.10
2007,09,13,16,06,22.00
2007,09,13,16,07,22.00
2007,09,13,16,08,22.00
2007,09,13,16,09,22.00
2007,09,13,16,10,22.10
2007,09,13,16,11,22.10
2007,09,13,16,12,22.00
2007,09,13,16,13,22.00
2007,09,13,16,14,22.10
2007,09,13,16,15,22.10
2007,09,13,16,16,22.00
2007,09,13,16,17,22.10
2007,09,13,16,18,22.10
2007,09,13,16,19,22.00
2007,09,13,16,20,22.00
2007,09,13,16,21,22.00
2007,09,13,16,22,21.90
2007,09,13,16,23,22.00
2007,09,13,16,24,22.00
2007,09,13,16,25,22.10
2007,09,13,16,26,22.10
2007,09,13,16,27,22.10
2007,09,13,16,28,22.10
2007,09,13,16,29,22.10
2007,09,13,16,30,22.10
2007,09,13,16,31,22.10
2007,09,13,16,32,22.20
2007,09,13,16,33,22.30
2007,09,13,16,34,22.40
2007,09,13,16,35,22.40
2007,09,13,16,36,22.30
2007,09,13,16,37,22.40
2007,09,13,16,38,22.40
2007,09,13,16,39,22.30
2007,09,13,16,40,22.30
2007,09,13,16,41,22.30
2007,09,13,16,42,22.30
2007,09,13,16,43,22.30
2007,09,13,16,44,22.40
2007,09,13,16,45,22.40
2007,09,13,16,46,22.40
2007,09,13,16,47,22.40
2007,09,13,16,48,22.40
2007,09,13,16,49,22.40
2007,09,13,16,50,22.30
2007,09,13,16,51,22.30
2007,09,13,16,52,22.30
2007,09,13,16,53,22.20
2007,09,13,16,54,22.30
2007,09,13,16,55,22.30
2007,09,13,16,56,22.30
2007,09,13,16,57,22.30
2007,09,13,16,58,22.20
2007,09,13,16,59,22.10
2007,09,13,17,00,22.10
2007,09,13,17,01,22.10
2007,09,13,17,02,22.00
2007,09,13,17,03,22.00
2007,09,13,17,04,22.00
2007,09,13,17,05,21.90
2007,09,13,17,06,21.80
2007,09,13,17,07,21.70
2007,09,13,17,08,21.70
2007,09,13,17,09,21.60
2007,09,13,17,10,21.60
2007,09,13,17,11,21.60
2007,09,13,17,12,21.40
2007,09,13,17,13,21.50
2007,09,13,17,14,21.60
2007,09,13,17,15,21.60
2007,09,13,17,16,21.60
2007,09,13,17,17,21.60
2007,09,13,17,18,21.60
2007,09,13,17,19,21.60
2007,09,13,17,20,21.50
2007,09,13,17,21,21.40
2007,09,13,17,22,21.30
2007,09,13,17,23,21.30
2007,09,13,17,24,21.30
2007,09,13,17,25,21.30
2007,09,13,17,26,21.40
2007,09,13,17,27,21.40
2007,09,13,17,28,21.50
2007,09,13,17,29,21.60
2007,09,13,17,30,21.60
2007,09,13,17,31,21.60
2007,09,13,17,32,21.60
2007,09,13,17,33,21.60
2007,09,13,17,34,21.60
2007,09,13,17,35,21.50
2007,09,13,17,36,21.40
2007,09,13,17,37,21.40
2007,09,13,17,38,21.30
2007,09,13,17,39,21.30
2007,09,13,17,40,21.30